Location: Zlin
(49.2330°N, 17.6670°E)
Time: 00:47:36
(UTC+01:00)

X-37B - Pass Details

Date: 24 September 2023
Orbit: 277 x 277 km, 45.0° (Epoch: 01 November)

Event Time Altitude Azimuth Distance (km) Brightness Sun altitude
Exits shadow 04:51:05 23° 142° (SE) 652 1.9 -17.9°
Drops below altitude 10° 04:52:27 10° 116° (ESE) 1,101 3.5 -17.7°
Sets 04:54:28 0° 105° (ESE) 1,914 5.0 -17.4°
